This is the latest recevied weather packets stored in our database for station/object N5KJT. If no packets are shown the sender has not sent any weather packets the latest 10 day(s).
| Time | Temp. | Humidity | Pressure | Rain* | Wind** | Luminosity | Snow |
|---|---|---|---|---|---|---|---|
| 1787708716 | 30° C | 30% | 1024.6 hPa | 0 mm | - | 0 W/m² | - |
| 1787708416 | 30.56° C | 30% | 1024.5 hPa | 0 mm | - | 5 W/m² | - |
| 1787708116 | 30.56° C | 30% | 1024.4 hPa | 0 mm | - | 9 W/m² | - |
| 1787707816 | 31.11° C | 30% | 1024.4 hPa | 0 mm | - | 14 W/m² | - |
| 1787707516 | 31.11° C | 35% | 1024.4 hPa | 0 mm | - | 19 W/m² | - |
| 1787707216 | 31.67° C | 30% | 1024.5 hPa | 0 mm | - | 22 W/m² | - |
| 1787706916 | 32.22° C | 32% | 1024.5 hPa | 0 mm | - | 36 W/m² | - |
| 1787706616 | 32.22° C | 28% | 1024.5 hPa | 0 mm | - | 70 W/m² | - |
| 1787706316 | 32.78° C | 27% | 1024.5 hPa | 0 mm | - | 98 W/m² | - |
| 1787706016 | 32.78° C | 29% | 1024.5 hPa | 0 mm | - | 112 W/m² | - |
| 1787705716 | 32.78° C | 27% | 1024.4 hPa | 0 mm | - | 148 W/m² | - |
| 1787705416 | 32.78° C | 24% | 1024.4 hPa | 0 mm | - | 177 W/m² | - |
| 1787705116 | 32.78° C | 28% | 1024.4 hPa | 0 mm | - | 208 W/m² | - |
| 1787704816 | 32.78° C | 25% | 1024.5 hPa | 0 mm | - | 237 W/m² | - |
| 1787704516 | 32.78° C | 25% | 1024.4 hPa | 0 mm | - | 263 W/m² | - |
| 1787704216 | 32.22° C | 24% | 1024.4 hPa | 0 mm | - | 292 W/m² | - |
| 1787703916 | 32.22° C | 23% | 1024.4 hPa | 0 mm | - | 313 W/m² | - |
| 1787703617 | 32.22° C | 24% | 1024.4 hPa | 0 mm | - | 338 W/m² | - |
| 1787703316 | 32.22° C | 26% | 1024.4 hPa | 0 mm | - | 369 W/m² | - |
| 1787703016 | 32.22° C | 26% | 1024.5 hPa | 0 mm | - | 395 W/m² | - |
| 1787702716 | 32.78° C | 28% | 1024.5 hPa | 0 mm | - | 410 W/m² | - |
| 1787702416 | 32.78° C | 27% | 1024.6 hPa | 0 mm | - | 260 W/m² | - |
| 1787702116 | 33.33° C | 26% | 1024.7 hPa | 0 mm | - | 342 W/m² | - |
| 1787701816 | 33.89° C | 23% | 1024.7 hPa | 0 mm | - | 157 W/m² | - |
| 1787701516 | 33.89° C | 23% | 1024.7 hPa | 0 mm | - | 302 W/m² | - |
* Rain latest hour (hover to see other rain measurements)
** Current wind speed in m/s (hover to see current wind gust speed)